Flag for Israel

Past Weather in Kfar Saba, Israel — Yesterday and Last 2 Weeks

Now
86 °F

Passing clouds.


Feels Like: 95 °F
Forecast: 88 / 74 °F
Wind: 10 mph from Northwest

Location: Ben Gurion International Airport
Current Time: Sep 30, 2020 at 6:04:58 pm
Latest Report: Sep 30, 2020 at 5:20 pm
Visibility: N/A
Pressure29.80 "Hg
Humidity: 70%
Dew Point: 75 °F
Location of Kfar SabaLocation

Past Weather in Kfar Saba — Graph

°F

Kfar Saba Temperature Yesterday

Maximum temperature yesterday: 91 °F (at 11:50 am)
Minimum temperature yesterday: 77 °F (at 12:20 am)
Average temperature yesterday: 82 °F

High & Low Weather Summary for the Past Weeks

 TemperatureHumidityPressure
High93 °F (Sep 18, 12:20 pm)89% (Sep 18, 2:50 am)30.01 "Hg (Sep 18, 2:50 am)
Low72 °F (Sep 27, 5:20 am)43% (Sep 21, 1:20 pm)29.74 "Hg (Sep 20, 2:20 pm)
Average82 °F67%29.87 "Hg
* Reported Sep 15 4:20 pm — Sep 30 4:50 pm, Kfar Saba. Weather by CustomWeather, © 2020

Note: Actual official high and low records may vary slightly from our data, if they occured in-between our weather recording intervals... More about our weather records

Kfar Saba Weather History for the Previous 24 Hours

Scroll right to see more
 ConditionsComfort  
Time TempWeatherWind HumidityBarometerVisibility
4:50 pm
Wed, Sep 30
86 °FSunny.12 mph66%29.77 "Hg10 mi
4:20 pm88 °FSunny.9 mph62%29.77 "Hg10 mi
3:50 pm88 °FSunny.8 mph62%29.77 "Hg10 mi
3:20 pm90 °FSunny.8 mph59%29.77 "Hg10 mi
2:50 pm90 °FPassing clouds.10 mph63%29.80 "HgN/A
2:20 pm90 °FSunny.10 mph63%29.80 "Hg10 mi
1:50 pm90 °FSunny.10 mph59%29.80 "Hg10 mi
1:20 pm88 °FSunny.10 mph62%29.80 "Hg10 mi
12:50 pm88 °FSunny.9 mph62%29.80 "Hg10 mi
12:20 pm90 °FSunny.8 mph59%29.83 "Hg10 mi
11:50 am90 °FSunny.7 mph59%29.83 "Hg10 mi
11:20 am88 °FSunny.3 mph59%29.83 "Hg10 mi
10:50 am86 °FSunny.5 mph62%29.83 "Hg10 mi
10:20 am84 °FSunny.5 mph66%29.83 "Hg10 mi
9:50 am82 °FPassing clouds.5 mph74%29.86 "HgN/A
9:20 am81 °FPassing clouds.7 mph79%29.83 "HgN/A
8:50 am79 °FPassing clouds.7 mph84%29.83 "HgN/A
8:20 am77 °FScattered clouds.8 mph83%29.83 "HgN/A
7:50 am77 °FScattered clouds.7 mph79%29.83 "HgN/A
7:20 am75 °FPassing clouds.3 mph78%29.83 "HgN/A
6:50 am75 °FSunny.5 mph78%29.83 "Hg10 mi
6:20 am75 °FClear.5 mph83%29.83 "Hg10 mi
5:50 am75 °FClear.5 mph83%29.83 "Hg10 mi
5:20 am75 °FClear.5 mph83%29.83 "Hg10 mi
4:50 am75 °FClear.5 mph89%29.83 "Hg10 mi
4:20 am77 °FClear.3 mph83%29.83 "Hg10 mi
3:50 am77 °FClear.6 mph83%29.83 "Hg10 mi
3:20 am77 °FClear.5 mph83%29.83 "Hg10 mi
2:50 am77 °FClear.5 mph89%29.83 "Hg10 mi
2:20 am79 °FClear.5 mph84%29.83 "Hg10 mi
1:50 am79 °FPassing clouds.6 mph84%29.86 "HgN/A
1:20 am79 °FPassing clouds.5 mph84%29.86 "HgN/A
12:50 am79 °FPassing clouds.2 mph89%29.86 "HgN/A
12:20 am81 °FPassing clouds.2 mph84%29.86 "HgN/A
11:50 pm
Tue, Sep 29
81 °FPassing clouds.2 mph84%29.86 "HgN/A
11:20 pm81 °FPassing clouds.1 mph84%29.86 "HgN/A
10:50 pm81 °FClear.2 mph84%29.86 "Hg10 mi
10:20 pm81 °FPassing clouds.3 mph84%29.89 "HgN/A
9:50 pm81 °FPassing clouds.5 mph84%29.86 "HgN/A
9:20 pm82 °FPassing clouds.5 mph79%29.89 "HgN/A
8:50 pm82 °FPassing clouds.5 mph79%29.86 "HgN/A
8:20 pm82 °FPassing clouds.6 mph79%29.86 "HgN/A
7:50 pm82 °FPassing clouds.6 mph79%29.86 "HgN/A
7:20 pm82 °FPassing clouds.5 mph79%29.86 "HgN/A
6:50 pm84 °FPassing clouds.7 mph74%29.86 "HgN/A
6:20 pm84 °FPassing clouds.8 mph74%29.86 "HgN/A
Weather by CustomWeather, © 2020

See weather overview